STARLINK-34246

Last updated on Fri Aug 08 2025 00:02:05 GMT+0000 (Coordinated Universal Time)

1 64769U 25147Q 25218.84198877 .00032726 00000+0 82404-3 0 9991 2 64769 53.1595 163.8231 0000966 69.5889 290.5220 15.39641577 5814
UTC large
Height (km)
Speed (km/s)
/
Latitude / Longitude
Inclination (degrees)
Orbital Period (minutes)
Azimuth
Elevation
Range (km)
Doppler Factor

Next 0 passes for location: London (51.5072 / 0.1276)

Sorry there are no passes over London.